Regional Weather Roundup
Issued by NWS

Home | Current Version | Previous Version | Graphics & Text | Print | Product List | Glossary On
Versions: 1 2 3 4 5 6 7 8 9 10 11 12 13 14 15 16 17 18 19 20 21 22 23 24 25 26 27 28 29 30 31 32 33 34 35 36 37 38 39 40 41 42 43 44 45 46 47 48 49 50
000
ASUS45 KCYS 261910
RWRWY

WYOMING REGIONAL WEATHER ROUNDUP
NATIONAL WEATHER SERVICE CHEYENNE WY
100 PM MDT TUE MAY 26 2015

NOTE:  "FAIR" INDICATES FEW OR NO CLOUDS BELOW 12,000 FEET
WITH NO SIGNIFICANT WEATHER AND/OR OBSTRUCTIONS TO VISIBILITY.

WYZ001-262000-
YELLOWSTONE NATIONAL PARK

CITY           SKY/WX    TMP DP  RH WIND       PRES   REMARKS
LK YELLOWSTONE   N/A     47  39  74 W9G18     30.12R
W YELLOWSTONE  NOT AVBL

$$
WYZ002>013-054>058-071-098>099-262000-
NORTHERN WYOMING

CITY           SKY/WX    TMP DP  RH WIND       PRES   REMARKS
JACKSON        PTSUNNY   57  43  58 SW13      30.05F
CODY           FAIR      63  43  48 E3        29.96F
GREYBULL       FAIR      71  41  33 W8        29.91F
WORLAND        FAIR      68  43  40 VRB5      29.94F
SHERIDAN       FAIR      68  46  45 N3        29.94S
BUFFALO        FAIR      64  47  53 S6        29.98S
GILLETTE       FAIR      66  48  52 SE8       29.95F
HULETT         FAIR      64  46  52 CALM      29.99F
NEWCASTLE      MOCLDY    63  45  51 S8        30.00F

$$
WYZ014>020-022>026-101>103-262000-
CENTRAL WYOMING

CITY           SKY/WX    TMP DP  RH WIND       PRES   REMARKS
BIG PINEY      CLOUDY    56  36  47 VRB3      30.09S
PINEDALE       CLOUDY    54  39  58 W14G20    30.09S
DUBOIS         MOCLDY    52  34  50 W5        30.04F
LANDER         PTSUNNY   64  46  52 N8        29.98F
RIVERTON       FAIR      64  43  46 CALM      29.99
CASPER         FAIR      66  46  48 S16G25    30.00S
DOUGLAS        PTSUNNY   66  44  45 CALM      29.99F

$$
WYZ021-027>030-104>119-262000-
SOUTHERN WYOMING

CITY           SKY/WX    TMP DP  RH WIND       PRES   REMARKS
EVANSTON       PTSUNNY   50  45  83 N10       30.12R
KEMMERER       LGT RAIN  46  41  81 NW5       30.12S
FORT BRIDGER   PTCLDY    57  43  58 W3        30.12F
ROCK SPRINGS   FAIR      58  40  51 W9        30.08F
DIXON          FAIR      61  44  53 S8        30.11F
RAWLINS        FAIR      62  40  44 W16       30.08F
SARATOGA       FAIR      61  37  41 MISG      30.10S
LARAMIE        PTSUNNY   59  36  42 CALM      30.08F
CHEYENNE       PTSUNNY   61  39  44 N7        30.04F
TORRINGTON     FAIR      67  51  56 SE7       29.99F
PINE BLUFFS    RAIN      59  45  58 W12G20    30.05S

$$



USA.gov is the U.S. government's official web portal to all federal, state and local government web resources and services.